owner,sensor,date,latitude,longitude,vertical_datum,mass_concentration_of_oxygen_in_sea_water,qcFlag 
DISL,ioos:station:DISL:MBLA:1,2011-09-01T00:02:00Z,30.4367,-88.0117,3.152,6.25,1111122 
DISL,ioos:station:DISL:MBLA:1,2011-09-01T00:05:00Z,30.4367,-88.0117,2.693,6.42,1111122 
DISL,ioos:station:DISL:MBLA:1,2011-09-01T00:08:00Z,30.4367,-88.0117,1.971,6.43,1111122 
DISL,ioos:station:DISL:MBLA:1,2011-09-01T00:10:00Z,30.4367,-88.0117,1.52,6.41,1111122 
DISL,ioos:station:DISL:MBLA:1,2011-09-01T00:13:00Z,30.4367,-88.0117,0.943,6.42,1111122 
DISL,ioos:station:DISL:MBLA:1,2011-09-01T00:16:00Z,30.4367,-88.0117,0.44,6.44,1111122 
DISL,ioos:station:DISL:MBLA:1,2011-09-01T01:02:00Z,30.4367,-88.0117,3.043,6.01,1111122 
DISL,ioos:station:DISL:MBLA:1,2011-09-01T01:05:00Z,30.4367,-88.0117,2.452,6.26,1111122 
DISL,ioos:station:DISL:MBLA:1,2011-09-01T01:07:00Z,30.4367,-88.0117,2.027,6.3,1111122 
DISL,ioos:station:DISL:MBLA:1,2011-09-01T01:10:00Z,30.4367,-88.0117,1.489,6.32,1111122 
DISL,ioos:station:DISL:MBLA:1,2011-09-01T01:13:00Z,30.4367,-88.0117,0.883,6.32,1111122 
DISL,ioos:station:DISL:MBLA:1,2011-09-01T01:15:00Z,30.4367,-88.0117,0.571,6.31,1111122 
DISL,ioos:station:DISL:MBLA:1,2011-09-01T02:02:00Z,30.4367,-88.0117,3.054,6.19,1111122 
DISL,ioos:station:DISL:MBLA:1,2011-09-01T02:05:00Z,30.4367,-88.0117,2.491,6.2,1111122 
DISL,ioos:station:DISL:MBLA:1,2011-09-01T02:08:00Z,30.4367,-88.0117,2.09,6.22,1111122 
DISL,ioos:station:DISL:MBLA:1,2011-09-01T02:10:00Z,30.4367,-88.0117,1.472,6.2,1111122 
DISL,ioos:station:DISL:MBLA:1,2011-09-01T02:13:00Z,30.4367,-88.0117,0.907,6.19,1111122 
DISL,ioos:station:DISL:MBLA:1,2011-09-01T02:15:00Z,30.4367,-88.0117,0.537,6.21,1111122 
DISL,ioos:station:DISL:MBLA:1,2011-09-01T03:02:00Z,30.4367,-88.0117,3.1,6.17,1111122 
DISL,ioos:station:DISL:MBLA:1,2011-09-01T03:05:00Z,30.4367,-88.0117,2.396,6.17,1111122 
DISL,ioos:station:DISL:MBLA:1,2011-09-01T03:07:00Z,30.4367,-88.0117,2.055,6.22,1111122 
DISL,ioos:station:DISL:MBLA:1,2011-09-01T03:10:00Z,30.4367,-88.0117,1.592,6.22,1111122 
DISL,ioos:station:DISL:MBLA:1,2011-09-01T03:13:00Z,30.4367,-88.0117,0.958,6.23,1111122 
DISL,ioos:station:DISL:MBLA:1,2011-09-01T03:15:00Z,30.4367,-88.0117,0.319,6.25,1111122 
DISL,ioos:station:DISL:MBLA:1,2011-09-01T04:02:00Z,30.4367,-88.0117,3.058,6.16,1111122 
DISL,ioos:station:DISL:MBLA:1,2011-09-01T04:05:00Z,30.4367,-88.0117,2.422,6.18,1111122 
DISL,ioos:station:DISL:MBLA:1,2011-09-01T04:07:00Z,30.4367,-88.0117,1.92,6.22,1111122 
DISL,ioos:station:DISL:MBLA:1,2011-09-01T04:10:00Z,30.4367,-88.0117,1.574,6.21,1111122 
DISL,ioos:station:DISL:MBLA:1,2011-09-01T04:12:00Z,30.4367,-88.0117,0.925,6.22,1111122 
DISL,ioos:station:DISL:MBLA:1,2011-09-01T04:15:00Z,30.4367,-88.0117,0.574,6.24,1111122 
DISL,ioos:station:DISL:MBLA:1,2011-09-01T05:02:00Z,30.4367,-88.0117,2.95,6.02,1111122 
DISL,ioos:station:DISL:MBLA:1,2011-09-01T05:05:00Z,30.4367,-88.0117,2.456,6.14,1111122 
DISL,ioos:station:DISL:MBLA:1,2011-09-01T05:07:00Z,30.4367,-88.0117,1.957,6.2,1111122 
DISL,ioos:station:DISL:MBLA:1,2011-09-01T05:10:00Z,30.4367,-88.0117,1.446,6.21,1111122 
DISL,ioos:station:DISL:MBLA:1,2011-09-01T05:12:00Z,30.4367,-88.0117,0.92,6.21,1111122 
DISL,ioos:station:DISL:MBLA:1,2011-09-01T05:14:00Z,30.4367,-88.0117,0.475,6.24,1111122 
DISL,ioos:station:DISL:MBLA:1,2011-09-01T06:02:00Z,30.4367,-88.0117,3.043,5.9,1111122 
DISL,ioos:station:DISL:MBLA:1,2011-09-01T06:05:00Z,30.4367,-88.0117,2.402,5.19,1111122 
DISL,ioos:station:DISL:MBLA:1,2011-09-01T06:07:00Z,30.4367,-88.0117,1.904,5.87,1111122 
DISL,ioos:station:DISL:MBLA:1,2011-09-01T06:10:00Z,30.4367,-88.0117,1.553,5.84,1111122 
DISL,ioos:station:DISL:MBLA:1,2011-09-01T06:12:00Z,30.4367,-88.0117,1.0,5.84,1111122 
DISL,ioos:station:DISL:MBLA:1,2011-09-01T06:15:00Z,30.4367,-88.0117,0.541,5.91,1111122 
DISL,ioos:station:DISL:MBLA:1,2011-09-01T07:02:00Z,30.4367,-88.0117,3.04,5.93,1111122 
DISL,ioos:station:DISL:MBLA:1,2011-09-01T07:05:00Z,30.4367,-88.0117,2.561,5.95,1111122 
DISL,ioos:station:DISL:MBLA:1,2011-09-01T07:08:00Z,30.4367,-88.0117,2.083,5.94,1111122 
DISL,ioos:station:DISL:MBLA:1,2011-09-01T07:10:00Z,30.4367,-88.0117,1.426,5.96,1111122 
DISL,ioos:station:DISL:MBLA:1,2011-09-01T07:12:00Z,30.4367,-88.0117,0.909,5.93,1111122 
DISL,ioos:station:DISL:MBLA:1,2011-09-01T07:15:00Z,30.4367,-88.0117,0.648,5.94,1111122 
DISL,ioos:station:DISL:MBLA:1,2011-09-01T08:02:00Z,30.4367,-88.0117,3.043,5.7,1111122 
DISL,ioos:station:DISL:MBLA:1,2011-09-01T08:05:00Z,30.4367,-88.0117,2.48,5.74,1111122 
DISL,ioos:station:DISL:MBLA:1,2011-09-01T08:07:00Z,30.4367,-88.0117,1.906,5.76,1111122 
DISL,ioos:station:DISL:MBLA:1,2011-09-01T08:10:00Z,30.4367,-88.0117,1.553,5.78,1111122 
DISL,ioos:station:DISL:MBLA:1,2011-09-01T08:12:00Z,30.4367,-88.0117,1.047,5.81,1111122 
DISL,ioos:station:DISL:MBLA:1,2011-09-01T08:15:00Z,30.4367,-88.0117,0.316,5.84,1111122 
DISL,ioos:station:DISL:MBLA:1,2011-09-01T09:02:00Z,30.4367,-88.0117,2.928,5.64,1111122 
DISL,ioos:station:DISL:MBLA:1,2011-09-01T09:05:00Z,30.4367,-88.0117,2.513,5.57,1111122 
DISL,ioos:station:DISL:MBLA:1,2011-09-01T09:08:00Z,30.4367,-88.0117,1.954,5.7,1111122 
DISL,ioos:station:DISL:MBLA:1,2011-09-01T09:10:00Z,30.4367,-88.0117,1.445,5.73,1111122 
DISL,ioos:station:DISL:MBLA:1,2011-09-01T09:12:00Z,30.4367,-88.0117,0.952,5.71,1111122 
DISL,ioos:station:DISL:MBLA:1,2011-09-01T09:15:00Z,30.4367,-88.0117,0.591,5.75,1111122 
DISL,ioos:station:DISL:MBLA:1,2011-09-01T10:02:00Z,30.4367,-88.0117,3.066,5.75,1111122 
DISL,ioos:station:DISL:MBLA:1,2011-09-01T10:05:00Z,30.4367,-88.0117,2.436,5.71,1111122 
DISL,ioos:station:DISL:MBLA:1,2011-09-01T10:07:00Z,30.4367,-88.0117,1.938,5.77,1111122 
DISL,ioos:station:DISL:MBLA:1,2011-09-01T10:10:00Z,30.4367,-88.0117,1.436,5.81,1111122 
DISL,ioos:station:DISL:MBLA:1,2011-09-01T10:13:00Z,30.4367,-88.0117,1.082,5.74,1111122 
DISL,ioos:station:DISL:MBLA:1,2011-09-01T10:15:00Z,30.4367,-88.0117,0.327,5.77,1111122 
DISL,ioos:station:DISL:MBLA:1,2011-09-01T11:02:00Z,30.4367,-88.0117,3.006,5.62,1111122 
DISL,ioos:station:DISL:MBLA:1,2011-09-01T11:05:00Z,30.4367,-88.0117,2.543,5.65,1111122 
DISL,ioos:station:DISL:MBLA:1,2011-09-01T11:08:00Z,30.4367,-88.0117,2.065,5.66,1111122 
DISL,ioos:station:DISL:MBLA:1,2011-09-01T11:10:00Z,30.4367,-88.0117,1.507,5.62,1111122 
DISL,ioos:station:DISL:MBLA:1,2011-09-01T11:13:00Z,30.4367,-88.0117,1.055,5.65,1111122 
DISL,ioos:station:DISL:MBLA:1,2011-09-01T11:15:00Z,30.4367,-88.0117,0.515,5.67,1111122 
DISL,ioos:station:DISL:MBLA:1,2011-09-01T12:02:00Z,30.4367,-88.0117,2.928,5.74,1111122 
DISL,ioos:station:DISL:MBLA:1,2011-09-01T12:05:00Z,30.4367,-88.0117,2.525,5.76,1111122 
DISL,ioos:station:DISL:MBLA:1,2011-09-01T12:08:00Z,30.4367,-88.0117,2.154,5.76,1111122 
DISL,ioos:station:DISL:MBLA:1,2011-09-01T12:10:00Z,30.4367,-88.0117,1.495,5.76,1111122 
DISL,ioos:station:DISL:MBLA:1,2011-09-01T12:13:00Z,30.4367,-88.0117,0.838,5.77,1111122 
DISL,ioos:station:DISL:MBLA:1,2011-09-01T12:16:00Z,30.4367,-88.0117,0.408,5.8,1111122 
DISL,ioos:station:DISL:MBLA:1,2011-09-01T13:02:00Z,30.4367,-88.0117,2.985,5.63,1111122 
DISL,ioos:station:DISL:MBLA:1,2011-09-01T13:05:00Z,30.4367,-88.0117,2.59,5.63,1111122 
DISL,ioos:station:DISL:MBLA:1,2011-09-01T13:07:00Z,30.4367,-88.0117,1.96,5.65,1111122 
DISL,ioos:station:DISL:MBLA:1,2011-09-01T13:10:00Z,30.4367,-88.0117,1.33,5.7,1111122 
DISL,ioos:station:DISL:MBLA:1,2011-09-01T13:12:00Z,30.4367,-88.0117,0.875,5.7,1111122 
DISL,ioos:station:DISL:MBLA:1,2011-09-01T13:15:00Z,30.4367,-88.0117,0.458,5.77,1111122 
DISL,ioos:station:DISL:MBLA:1,2011-09-01T14:02:00Z,30.4367,-88.0117,3.015,5.47,1111122 
DISL,ioos:station:DISL:MBLA:1,2011-09-01T14:05:00Z,30.4367,-88.0117,2.446,5.48,1111122 
DISL,ioos:station:DISL:MBLA:1,2011-09-01T14:07:00Z,30.4367,-88.0117,1.934,5.53,1111122 
DISL,ioos:station:DISL:MBLA:1,2011-09-01T14:10:00Z,30.4367,-88.0117,1.296,5.54,1111122 
DISL,ioos:station:DISL:MBLA:1,2011-09-01T14:12:00Z,30.4367,-88.0117,0.88,5.61,1111122 
DISL,ioos:station:DISL:MBLA:1,2011-09-01T14:15:00Z,30.4367,-88.0117,0.446,5.65,1111122 
DISL,ioos:station:DISL:MBLA:1,2011-09-01T15:02:00Z,30.4367,-88.0117,3.012,5.2,1111122 
DISL,ioos:station:DISL:MBLA:1,2011-09-01T15:05:00Z,30.4367,-88.0117,2.419,5.26,1111122 
DISL,ioos:station:DISL:MBLA:1,2011-09-01T15:07:00Z,30.4367,-88.0117,2.067,5.34,1111122 
DISL,ioos:station:DISL:MBLA:1,2011-09-01T15:10:00Z,30.4367,-88.0117,1.429,5.31,1111122 
DISL,ioos:station:DISL:MBLA:1,2011-09-01T15:13:00Z,30.4367,-88.0117,0.814,5.52,1111122 
DISL,ioos:station:DISL:MBLA:1,2011-09-01T15:15:00Z,30.4367,-88.0117,0.573,5.6,1111122 
DISL,ioos:station:DISL:MBLA:1,2011-09-01T16:02:00Z,30.4367,-88.0117,3.031,5.28,1111122 
DISL,ioos:station:DISL:MBLA:1,2011-09-01T16:05:00Z,30.4367,-88.0117,2.566,5.4,1111122 
DISL,ioos:station:DISL:MBLA:1,2011-09-01T16:07:00Z,30.4367,-88.0117,1.919,5.48,1111122 
DISL,ioos:station:DISL:MBLA:1,2011-09-01T16:10:00Z,30.4367,-88.0117,1.583,5.45,1111122 
DISL,ioos:station:DISL:MBLA:1,2011-09-01T16:12:00Z,30.4367,-88.0117,0.949,5.46,1111122 
DISL,ioos:station:DISL:MBLA:1,2011-09-01T16:15:00Z,30.4367,-88.0117,0.383,5.52,1111122 
DISL,ioos:station:DISL:MBLA:1,2011-09-01T17:02:00Z,30.4367,-88.0117,3.042,5.56,1111122 
DISL,ioos:station:DISL:MBLA:1,2011-09-01T17:05:00Z,30.4367,-88.0117,2.55,5.57,1111122 
DISL,ioos:station:DISL:MBLA:1,2011-09-01T17:08:00Z,30.4367,-88.0117,2.047,5.68,1111122 
DISL,ioos:station:DISL:MBLA:1,2011-09-01T17:10:00Z,30.4367,-88.0117,1.445,5.75,1111122 
DISL,ioos:station:DISL:MBLA:1,2011-09-01T17:12:00Z,30.4367,-88.0117,0.999,5.75,1111122 
DISL,ioos:station:DISL:MBLA:1,2011-09-01T17:15:00Z,30.4367,-88.0117,0.432,5.8,1111122 
DISL,ioos:station:DISL:MBLA:1,2011-09-01T18:02:00Z,30.4367,-88.0117,3.041,5.59,1111122 
DISL,ioos:station:DISL:MBLA:1,2011-09-01T18:05:00Z,30.4367,-88.0117,2.56,5.77,1111122 
DISL,ioos:station:DISL:MBLA:1,2011-09-01T18:08:00Z,30.4367,-88.0117,2.052,5.85,1111122 
DISL,ioos:station:DISL:MBLA:1,2011-09-01T18:10:00Z,30.4367,-88.0117,1.367,5.85,1111122 
DISL,ioos:station:DISL:MBLA:1,2011-09-01T18:13:00Z,30.4367,-88.0117,1.005,5.9,1111122 
DISL,ioos:station:DISL:MBLA:1,2011-09-01T18:15:00Z,30.4367,-88.0117,0.491,6.05,1111122 
DISL,ioos:station:DISL:MBLA:1,2011-09-01T19:03:00Z,30.4367,-88.0117,2.926,5.5,1111122 
DISL,ioos:station:DISL:MBLA:1,2011-09-01T19:05:00Z,30.4367,-88.0117,2.401,5.82,1111122 
DISL,ioos:station:DISL:MBLA:1,2011-09-01T19:08:00Z,30.4367,-88.0117,2.037,5.84,1111122 
DISL,ioos:station:DISL:MBLA:1,2011-09-01T19:10:00Z,30.4367,-88.0117,1.461,5.85,1111122 
DISL,ioos:station:DISL:MBLA:1,2011-09-01T19:13:00Z,30.4367,-88.0117,0.885,5.97,1111122 
DISL,ioos:station:DISL:MBLA:1,2011-09-01T19:15:00Z,30.4367,-88.0117,0.539,5.94,1111122 
DISL,ioos:station:DISL:MBLA:1,2011-09-01T20:03:00Z,30.4367,-88.0117,2.96,5.15,1111122 
DISL,ioos:station:DISL:MBLA:1,2011-09-01T20:05:00Z,30.4367,-88.0117,2.453,5.56,1111122 
DISL,ioos:station:DISL:MBLA:1,2011-09-01T20:08:00Z,30.4367,-88.0117,2.047,5.65,1111122 
DISL,ioos:station:DISL:MBLA:1,2011-09-01T20:11:00Z,30.4367,-88.0117,1.56,5.76,1111122 
DISL,ioos:station:DISL:MBLA:1,2011-09-01T20:13:00Z,30.4367,-88.0117,0.829,5.77,1111122 
DISL,ioos:station:DISL:MBLA:1,2011-09-01T20:16:00Z,30.4367,-88.0117,0.253,5.83,1111122 
DISL,ioos:station:DISL:MBLA:1,2011-09-01T21:03:00Z,30.4367,-88.0117,2.986,6.19,1111122 
DISL,ioos:station:DISL:MBLA:1,2011-09-01T21:06:00Z,30.4367,-88.0117,2.638,6.2,1111122 
DISL,ioos:station:DISL:MBLA:1,2011-09-01T21:08:00Z,30.4367,-88.0117,1.797,6.25,1111122 
DISL,ioos:station:DISL:MBLA:1,2011-09-01T21:11:00Z,30.4367,-88.0117,1.315,6.23,1111122 
DISL,ioos:station:DISL:MBLA:1,2011-09-01T21:13:00Z,30.4367,-88.0117,0.704,6.35,1111122 
DISL,ioos:station:DISL:MBLA:1,2011-09-01T21:16:00Z,30.4367,-88.0117,0.638,6.38,1111122 
DISL,ioos:station:DISL:MBLA:1,2011-09-01T22:03:00Z,30.4367,-88.0117,2.689,6.55,1111122 
DISL,ioos:station:DISL:MBLA:1,2011-09-01T22:05:00Z,30.4367,-88.0117,2.359,6.54,1111122 
DISL,ioos:station:DISL:MBLA:1,2011-09-01T22:08:00Z,30.4367,-88.0117,1.816,6.58,1111122 
DISL,ioos:station:DISL:MBLA:1,2011-09-01T22:11:00Z,30.4367,-88.0117,1.689,6.58,1111122 
DISL,ioos:station:DISL:MBLA:1,2011-09-01T22:14:00Z,30.4367,-88.0117,0.996,6.58,1111122 
DISL,ioos:station:DISL:MBLA:1,2011-09-01T22:17:00Z,30.4367,-88.0117,0.274,6.57,1111122 
DISL,ioos:station:DISL:MBLA:1,2011-09-01T23:02:00Z,30.4367,-88.0117,3.05,5.87,1111122 
DISL,ioos:station:DISL:MBLA:1,2011-09-01T23:05:00Z,30.4367,-88.0117,2.512,5.86,1111122 
DISL,ioos:station:DISL:MBLA:1,2011-09-01T23:08:00Z,30.4367,-88.0117,1.991,5.89,1111122 
DISL,ioos:station:DISL:MBLA:1,2011-09-01T23:10:00Z,30.4367,-88.0117,1.601,5.91,1111122 
DISL,ioos:station:DISL:MBLA:1,2011-09-01T23:12:00Z,30.4367,-88.0117,1.058,5.92,1111122 
DISL,ioos:station:DISL:MBLA:1,2011-09-01T23:15:00Z,30.4367,-88.0117,0.411,5.93,1111122 
DISL,ioos:station:DISL:MBLA:1,2011-09-02T00:02:00Z,30.4367,-88.0117,3.05,5.89,1111122 
DISL,ioos:station:DISL:MBLA:1,2011-09-02T00:05:00Z,30.4367,-88.0117,2.477,5.88,1111122 
DISL,ioos:station:DISL:MBLA:1,2011-09-02T00:07:00Z,30.4367,-88.0117,1.985,5.9,1111122 
DISL,ioos:station:DISL:MBLA:1,2011-09-02T00:10:00Z,30.4367,-88.0117,1.513,5.88,1111122 
DISL,ioos:station:DISL:MBLA:1,2011-09-02T00:12:00Z,30.4367,-88.0117,0.92,5.9,1111122 
DISL,ioos:station:DISL:MBLA:1,2011-09-02T00:15:00Z,30.4367,-88.0117,0.255,5.92,1111122 
DISL,ioos:station:DISL:MBLA:1,2011-09-02T01:02:00Z,30.4367,-88.0117,3.048,5.8,1111122 
DISL,ioos:station:DISL:MBLA:1,2011-09-02T01:05:00Z,30.4367,-88.0117,2.575,5.81,1111122 
DISL,ioos:station:DISL:MBLA:1,2011-09-02T01:07:00Z,30.4367,-88.0117,1.936,5.83,1111122 
DISL,ioos:station:DISL:MBLA:1,2011-09-02T01:10:00Z,30.4367,-88.0117,1.476,5.82,1111122 
DISL,ioos:station:DISL:MBLA:1,2011-09-02T01:12:00Z,30.4367,-88.0117,0.92,5.81,1111122 
DISL,ioos:station:DISL:MBLA:1,2011-09-02T01:15:00Z,30.4367,-88.0117,0.387,5.82,1111122 
DISL,ioos:station:DISL:MBLA:1,2011-09-02T02:02:00Z,30.4367,-88.0117,3.049,5.74,1111122 
DISL,ioos:station:DISL:MBLA:1,2011-09-02T02:05:00Z,30.4367,-88.0117,2.566,5.72,1111122 
DISL,ioos:station:DISL:MBLA:1,2011-09-02T02:08:00Z,30.4367,-88.0117,1.939,5.72,1111122 
DISL,ioos:station:DISL:MBLA:1,2011-09-02T02:10:00Z,30.4367,-88.0117,1.422,5.72,1111122 
DISL,ioos:station:DISL:MBLA:1,2011-09-02T02:13:00Z,30.4367,-88.0117,0.911,5.68,1111122 
DISL,ioos:station:DISL:MBLA:1,2011-09-02T02:16:00Z,30.4367,-88.0117,0.486,5.64,1111122 
DISL,ioos:station:DISL:MBLA:1,2011-09-02T03:02:00Z,30.4367,-88.0117,3.046,5.09,1111122 
DISL,ioos:station:DISL:MBLA:1,2011-09-02T03:05:00Z,30.4367,-88.0117,2.416,5.42,1111122 
DISL,ioos:station:DISL:MBLA:1,2011-09-02T03:07:00Z,30.4367,-88.0117,1.913,5.69,1111122 
DISL,ioos:station:DISL:MBLA:1,2011-09-02T03:10:00Z,30.4367,-88.0117,1.409,5.61,1111122 
DISL,ioos:station:DISL:MBLA:1,2011-09-02T03:12:00Z,30.4367,-88.0117,0.911,5.58,1111122 
DISL,ioos:station:DISL:MBLA:1,2011-09-02T03:14:00Z,30.4367,-88.0117,0.355,5.61,1111122 
DISL,ioos:station:DISL:MBLA:1,2011-09-02T04:02:00Z,30.4367,-88.0117,3.026,5.83,1111122 
DISL,ioos:station:DISL:MBLA:1,2011-09-02T04:05:00Z,30.4367,-88.0117,2.463,5.88,1111122 
DISL,ioos:station:DISL:MBLA:1,2011-09-02T04:07:00Z,30.4367,-88.0117,1.966,5.65,1111122 
DISL,ioos:station:DISL:MBLA:1,2011-09-02T04:10:00Z,30.4367,-88.0117,1.466,5.63,1111122 
DISL,ioos:station:DISL:MBLA:1,2011-09-02T04:12:00Z,30.4367,-88.0117,1.085,5.66,1111122 
DISL,ioos:station:DISL:MBLA:1,2011-09-02T04:15:00Z,30.4367,-88.0117,0.457,5.68,1111122 
DISL,ioos:station:DISL:MBLA:1,2011-09-02T05:02:00Z,30.4367,-88.0117,3.037,5.89,1111122 
DISL,ioos:station:DISL:MBLA:1,2011-09-02T05:05:00Z,30.4367,-88.0117,2.403,5.84,1111122 
DISL,ioos:station:DISL:MBLA:1,2011-09-02T05:07:00Z,30.4367,-88.0117,1.914,5.64,1111122 
DISL,ioos:station:DISL:MBLA:1,2011-09-02T05:10:00Z,30.4367,-88.0117,1.375,5.66,1111122 
DISL,ioos:station:DISL:MBLA:1,2011-09-02T05:12:00Z,30.4367,-88.0117,0.905,5.67,1111122 
DISL,ioos:station:DISL:MBLA:1,2011-09-02T05:15:00Z,30.4367,-88.0117,0.417,5.68,1111122 
DISL,ioos:station:DISL:MBLA:1,2011-09-02T06:02:00Z,30.4367,-88.0117,3.043,5.87,1111122 
DISL,ioos:station:DISL:MBLA:1,2011-09-02T06:05:00Z,30.4367,-88.0117,2.627,5.72,1111122 
DISL,ioos:station:DISL:MBLA:1,2011-09-02T06:08:00Z,30.4367,-88.0117,2.007,5.67,1111122 
DISL,ioos:station:DISL:MBLA:1,2011-09-02T06:10:00Z,30.4367,-88.0117,1.392,5.66,1111122 
DISL,ioos:station:DISL:MBLA:1,2011-09-02T06:13:00Z,30.4367,-88.0117,0.96,5.69,1111122 
DISL,ioos:station:DISL:MBLA:1,2011-09-02T06:16:00Z,30.4367,-88.0117,0.353,5.7,1111122 
DISL,ioos:station:DISL:MBLA:1,2011-09-02T07:02:00Z,30.4367,-88.0117,3.1,5.66,1111122 
DISL,ioos:station:DISL:MBLA:1,2011-09-02T07:05:00Z,30.4367,-88.0117,2.547,5.64,1111122 
DISL,ioos:station:DISL:MBLA:1,2011-09-02T07:08:00Z,30.4367,-88.0117,2.016,5.68,1111122 
DISL,ioos:station:DISL:MBLA:1,2011-09-02T07:10:00Z,30.4367,-88.0117,1.531,5.67,1111122 
DISL,ioos:station:DISL:MBLA:1,2011-09-02T07:13:00Z,30.4367,-88.0117,1.239,5.69,1111122 
DISL,ioos:station:DISL:MBLA:1,2011-09-02T07:15:00Z,30.4367,-88.0117,0.433,5.73,1111122 
DISL,ioos:station:DISL:MBLA:1,2011-09-02T08:02:00Z,30.4367,-88.0117,3.028,5.64,1111122 
DISL,ioos:station:DISL:MBLA:1,2011-09-02T08:05:00Z,30.4367,-88.0117,2.5,5.74,1111122 
DISL,ioos:station:DISL:MBLA:1,2011-09-02T08:08:00Z,30.4367,-88.0117,1.916,5.68,1111122 
DISL,ioos:station:DISL:MBLA:1,2011-09-02T08:10:00Z,30.4367,-88.0117,1.348,5.7,1111122 
DISL,ioos:station:DISL:MBLA:1,2011-09-02T08:12:00Z,30.4367,-88.0117,0.837,5.68,1111122 
DISL,ioos:station:DISL:MBLA:1,2011-09-02T08:15:00Z,30.4367,-88.0117,0.706,5.7,1111122 
DISL,ioos:station:DISL:MBLA:1,2011-09-02T09:02:00Z,30.4367,-88.0117,2.975,5.51,1111122 
DISL,ioos:station:DISL:MBLA:1,2011-09-02T09:05:00Z,30.4367,-88.0117,2.406,5.54,1111122 
DISL,ioos:station:DISL:MBLA:1,2011-09-02T09:07:00Z,30.4367,-88.0117,1.912,5.47,1111122 
DISL,ioos:station:DISL:MBLA:1,2011-09-02T09:10:00Z,30.4367,-88.0117,1.574,5.54,1111122 
DISL,ioos:station:DISL:MBLA:1,2011-09-02T09:12:00Z,30.4367,-88.0117,0.933,5.53,1111122 
DISL,ioos:station:DISL:MBLA:1,2011-09-02T09:15:00Z,30.4367,-88.0117,0.389,5.55,1111122 
DISL,ioos:station:DISL:MBLA:1,2011-09-02T10:02:00Z,30.4367,-88.0117,3.048,5.39,1111122 
DISL,ioos:station:DISL:MBLA:1,2011-09-02T10:05:00Z,30.4367,-88.0117,2.42,5.33,1111122 
DISL,ioos:station:DISL:MBLA:1,2011-09-02T10:07:00Z,30.4367,-88.0117,1.917,5.42,1111122 
DISL,ioos:station:DISL:MBLA:1,2011-09-02T10:10:00Z,30.4367,-88.0117,1.427,5.48,1111122 
DISL,ioos:station:DISL:MBLA:1,2011-09-02T10:12:00Z,30.4367,-88.0117,1.007,5.51,1111122 
DISL,ioos:station:DISL:MBLA:1,2011-09-02T10:15:00Z,30.4367,-88.0117,0.637,5.5,1111122 
DISL,ioos:station:DISL:MBLA:1,2011-09-02T11:02:00Z,30.4367,-88.0117,3.047,5.4,1111122 
DISL,ioos:station:DISL:MBLA:1,2011-09-02T11:05:00Z,30.4367,-88.0117,2.414,5.44,1111122 
DISL,ioos:station:DISL:MBLA:1,2011-09-02T11:07:00Z,30.4367,-88.0117,2.076,5.44,1111122 
DISL,ioos:station:DISL:MBLA:1,2011-09-02T11:10:00Z,30.4367,-88.0117,1.439,5.43,1111122 
DISL,ioos:station:DISL:MBLA:1,2011-09-02T11:12:00Z,30.4367,-88.0117,0.827,5.45,1111122 
DISL,ioos:station:DISL:MBLA:1,2011-09-02T11:15:00Z,30.4367,-88.0117,0.412,5.48,1111122 
DISL,ioos:station:DISL:MBLA:1,2011-09-02T12:02:00Z,30.4367,-88.0117,3.034,5.29,1111122 
DISL,ioos:station:DISL:MBLA:1,2011-09-02T12:05:00Z,30.4367,-88.0117,2.398,5.36,1111122 
DISL,ioos:station:DISL:MBLA:1,2011-09-02T12:07:00Z,30.4367,-88.0117,1.901,5.4,1111122 
DISL,ioos:station:DISL:MBLA:1,2011-09-02T12:10:00Z,30.4367,-88.0117,1.404,5.41,1111122 
DISL,ioos:station:DISL:MBLA:1,2011-09-02T12:12:00Z,30.4367,-88.0117,1.013,5.43,1111122 
DISL,ioos:station:DISL:MBLA:1,2011-09-02T12:15:00Z,30.4367,-88.0117,0.449,5.46,1111122 
DISL,ioos:station:DISL:MBLA:1,2011-09-02T13:02:00Z,30.4367,-88.0117,3.065,5.33,1111122 
DISL,ioos:station:DISL:MBLA:1,2011-09-02T13:05:00Z,30.4367,-88.0117,2.448,5.37,1111122 
DISL,ioos:station:DISL:MBLA:1,2011-09-02T13:07:00Z,30.4367,-88.0117,1.887,5.4,1111122 
DISL,ioos:station:DISL:MBLA:1,2011-09-02T13:10:00Z,30.4367,-88.0117,1.378,5.44,1111122 
DISL,ioos:station:DISL:MBLA:1,2011-09-02T13:12:00Z,30.4367,-88.0117,1.17,5.42,1111122 
DISL,ioos:station:DISL:MBLA:1,2011-09-02T13:15:00Z,30.4367,-88.0117,0.463,5.47,1111122 
DISL,ioos:station:DISL:MBLA:1,2011-09-02T14:02:00Z,30.4367,-88.0117,3.011,5.3,1111122 
DISL,ioos:station:DISL:MBLA:1,2011-09-02T14:05:00Z,30.4367,-88.0117,2.554,5.35,1111122 
DISL,ioos:station:DISL:MBLA:1,2011-09-02T14:08:00Z,30.4367,-88.0117,2.077,5.38,1111122 
DISL,ioos:station:DISL:MBLA:1,2011-09-02T14:10:00Z,30.4367,-88.0117,1.448,5.39,1111122 
DISL,ioos:station:DISL:MBLA:1,2011-09-02T14:12:00Z,30.4367,-88.0117,0.861,5.4,1111122 
DISL,ioos:station:DISL:MBLA:1,2011-09-02T14:15:00Z,30.4367,-88.0117,0.461,5.44,1111122 
DISL,ioos:station:DISL:MBLA:1,2011-09-02T15:02:00Z,30.4367,-88.0117,3.015,5.27,1111122 
DISL,ioos:station:DISL:MBLA:1,2011-09-02T15:05:00Z,30.4367,-88.0117,2.385,5.39,1111122 
DISL,ioos:station:DISL:MBLA:1,2011-09-02T15:07:00Z,30.4367,-88.0117,2.039,5.44,1111122 
DISL,ioos:station:DISL:MBLA:1,2011-09-02T15:10:00Z,30.4367,-88.0117,1.362,5.46,1111122 
DISL,ioos:station:DISL:MBLA:1,2011-09-02T15:12:00Z,30.4367,-88.0117,1.135,5.48,1111122 
DISL,ioos:station:DISL:MBLA:1,2011-09-02T15:15:00Z,30.4367,-88.0117,0.453,5.5,1111122 
DISL,ioos:station:DISL:MBLA:1,2011-09-02T16:02:00Z,30.4367,-88.0117,3.034,5.38,1111122 
DISL,ioos:station:DISL:MBLA:1,2011-09-02T16:05:00Z,30.4367,-88.0117,2.423,5.45,1111122 
DISL,ioos:station:DISL:MBLA:1,2011-09-02T16:07:00Z,30.4367,-88.0117,1.981,5.5,1111122 
DISL,ioos:station:DISL:MBLA:1,2011-09-02T16:10:00Z,30.4367,-88.0117,1.346,5.48,1111122 
DISL,ioos:station:DISL:MBLA:1,2011-09-02T16:12:00Z,30.4367,-88.0117,0.948,5.52,1111122 
DISL,ioos:station:DISL:MBLA:1,2011-09-02T16:15:00Z,30.4367,-88.0117,0.319,5.59,1111122 
DISL,ioos:station:DISL:MBLA:1,2011-09-02T17:02:00Z,30.4367,-88.0117,2.992,5.54,1111122 
DISL,ioos:station:DISL:MBLA:1,2011-09-02T17:05:00Z,30.4367,-88.0117,2.508,5.64,1111122 
DISL,ioos:station:DISL:MBLA:1,2011-09-02T17:07:00Z,30.4367,-88.0117,1.962,5.72,1111122 
DISL,ioos:station:DISL:MBLA:1,2011-09-02T17:10:00Z,30.4367,-88.0117,1.38,5.69,1111122 
DISL,ioos:station:DISL:MBLA:1,2011-09-02T17:13:00Z,30.4367,-88.0117,1.054,5.77,1111122 
DISL,ioos:station:DISL:MBLA:1,2011-09-02T17:15:00Z,30.4367,-88.0117,0.388,5.79,1111122 
DISL,ioos:station:DISL:MBLA:1,2011-09-02T18:03:00Z,30.4367,-88.0117,2.903,5.8,1111122 
DISL,ioos:station:DISL:MBLA:1,2011-09-02T18:05:00Z,30.4367,-88.0117,2.533,5.87,1111122 
DISL,ioos:station:DISL:MBLA:1,2011-09-02T18:08:00Z,30.4367,-88.0117,2.133,5.9,1111122 
DISL,ioos:station:DISL:MBLA:1,2011-09-02T18:10:00Z,30.4367,-88.0117,1.4,5.93,1111122 
DISL,ioos:station:DISL:MBLA:1,2011-09-02T18:13:00Z,30.4367,-88.0117,1.029,5.92,1111122 
DISL,ioos:station:DISL:MBLA:1,2011-09-02T18:16:00Z,30.4367,-88.0117,0.558,5.94,1111122 
DISL,ioos:station:DISL:MBLA:1,2011-09-02T19:02:00Z,30.4367,-88.0117,3.101,5.7,1111122 
DISL,ioos:station:DISL:MBLA:1,2011-09-02T19:05:00Z,30.4367,-88.0117,2.332,5.78,1111122 
DISL,ioos:station:DISL:MBLA:1,2011-09-02T19:08:00Z,30.4367,-88.0117,1.996,5.78,1111122 
DISL,ioos:station:DISL:MBLA:1,2011-09-02T19:11:00Z,30.4367,-88.0117,1.591,5.79,1111122 
DISL,ioos:station:DISL:MBLA:1,2011-09-02T19:13:00Z,30.4367,-88.0117,1.065,5.8,1111122 
DISL,ioos:station:DISL:MBLA:1,2011-09-02T19:16:00Z,30.4367,-88.0117,0.507,5.82,1111122 
DISL,ioos:station:DISL:MBLA:1,2011-09-02T20:02:00Z,30.4367,-88.0117,2.976,5.73,1111122 
DISL,ioos:station:DISL:MBLA:1,2011-09-02T20:05:00Z,30.4367,-88.0117,2.448,5.82,1111122 
DISL,ioos:station:DISL:MBLA:1,2011-09-02T20:08:00Z,30.4367,-88.0117,1.952,5.85,1111122 
DISL,ioos:station:DISL:MBLA:1,2011-09-02T20:10:00Z,30.4367,-88.0117,1.383,5.87,1111122 
DISL,ioos:station:DISL:MBLA:1,2011-09-02T20:12:00Z,30.4367,-88.0117,0.901,5.86,1111122 
DISL,ioos:station:DISL:MBLA:1,2011-09-02T20:15:00Z,30.4367,-88.0117,0.604,5.89,1111122 
DISL,ioos:station:DISL:MBLA:1,2011-09-02T21:02:00Z,30.4367,-88.0117,3.054,5.63,1111122 
DISL,ioos:station:DISL:MBLA:1,2011-09-02T21:05:00Z,30.4367,-88.0117,2.417,5.66,1111122 